FW4110 Weather Reports


Display with metric or nautical units.
time (UTC)temp
F
wind
direction
speed
MPH
gust
MPH
rain 1hr
in
rain 24hr
in
rain mn
in
humidity
%
barometer
mb
20260507050038 42 46 0.0 0.0 0.00 0.15 0.00 81 1020.3
20260507044535 42 46 0.0 0.0 0.00 0.26 0.00 82 1020.2
20260507043037 43 46 0.0 0.0 0.00 0.26 0.00 82 1020.1
20260507041533 43 46 0.0 0.0 0.00 0.26 0.00 83 1020.0
20260507040033 44 45 0.0 0.0 0.00 0.26 0.00 84 1020.2
20260507034535 44 46 0.0 0.0 0.00 0.30 0.00 85 1020.2
20260507033028 44 46 0.0 0.0 0.00 0.30 0.00 86 1020.3
20260507031526 45 46 0.0 0.0 0.00 0.30 0.00 86 1020.4
20260507030023 46 45 0.0 0.0 0.00 0.30 0.00 86 1020.3
20260507024525 46 46 0.0 0.0 0.00 0.32 0.00 86 1020.2
20260507023024 47 46 0.0 0.0 0.00 0.32 0.00 86 1020.1
20260507021520 47 45 0.0 0.0 0.00 0.32 0.00 85 1020.0
20260507020030 48 46 0.0 0.0 0.00 0.32 0.00 85 1019.8
20260507014519 48 46 0.0 0.0 0.00 0.35 0.00 84 1019.6
20260507013038 49 46 0.0 0.0 0.00 0.35 0.00 84 1019.3
20260507011518 51 46 0.0 0.0 0.00 0.35 0.00 81 1019.3
20260507010017 53 46 0.0 0.0 0.00 0.35 0.00 80 1019.0
20260507004517 56 46 0.0 0.0 0.00 0.35 0.00 75 1018.6
20260507003015 58 47 0.0 2.0 0.00 0.35 0.00 71 1018.6
20260507001516 59 1 0.0 5.0 0.00 0.35 0.00 66 1018.7
20260507000017 60 351 2.0 6.0 0.00 0.35 0.00 66 1018.8
20260506234520 59 355 2.0 6.0 0.00 0.35 0.00 66 1018.6
20260506233014 59 35 4.0 6.0 0.00 0.35 0.00 64 1018.6
20260506231514 60 343 3.0 9.0 0.00 0.35 0.00 63 1018.7
20260506230011 61 342 7.0 11.0 0.00 0.35 0.00 63 1018.6
20260506224511 60 356 5.0 9.0 0.00 0.35 0.00 62 1018.6
20260506223011 61 326 7.0 12.0 0.00 0.35 0.00 61 1018.7
20260506221509 61 23 2.0 9.0 0.00 0.35 0.00 61 1018.7
20260506220017 61 46 1.0 8.0 0.00 0.35 0.00 60 1018.7
20260506214509 62 359 6.0 14.0 0.00 0.35 0.00 59 1018.8
20260506213006 62 28 4.0 9.0 0.00 0.35 0.00 61 1018.9
20260506211508 60 1 3.0 7.0 0.00 0.35 0.00 60 1019.0
20260506210010 60 67 3.0 10.0 0.00 0.35 0.00 65 1019.1
20260506204501 60 14 2.0 9.0 0.00 0.35 0.00 66 1019.0
20260506203100 60 21 4.0 11.0 0.00 0.35 0.00 65 1019.4
20260506201604 60 8 4.0 9.0 0.00 0.35 0.00 65 1019.5
20260506200058 59 30 5.0 12.0 0.00 0.35 0.00 66 1019.8
20260506194558 61 349 6.0 10.0 0.00 0.35 0.00 66 1019.8
20260506193056 61 47 4.0 13.0 0.00 0.35 0.00 64 1019.6
20260506191557 60 21 6.0 14.0 0.00 0.35 0.00 63 1019.6
20260506190056 60 322 3.0 10.0 0.00 0.35 0.00 64 1019.5
20260506184559 59 351 5.0 10.0 0.00 0.35 0.00 65 1019.4
20260506183054 60 308 3.0 17.0 0.00 0.35 0.00 70 1019.4
20260506181550 59 47 2.0 12.0 0.00 0.35 0.00 65 1019.5
20260506180049 59 62 2.0 10.0 0.00 0.35 0.00 71 1019.8
20260506174548 58 18 4.0 9.0 0.00 0.35 0.00 70 1019.9
20260506173049 58 41 3.0 9.0 0.00 0.35 0.00 70 1019.9
20260506171549 57 59 2.0 11.0 0.00 0.35 0.00 62 1019.8
20260506170037 56 289 2.0 8.0 0.00 0.35 0.00 55 1019.7
20260506164547 55 334 3.0 11.0 0.00 0.36 0.00 60 1019.7
20260506163032 54 17 3.0 11.0 0.00 0.36 0.00 66 1019.7
20260506161528 52 358 4.0 6.0 0.00 0.36 0.00 74 1019.5
20260506160024 52 354 3.0 6.0 0.00 0.36 0.00 81 1019.6
20260506154521 51 5 3.0 7.0 0.00 0.36 0.00 81 1019.4
20260506153018 50 3 0.0 0.0 0.00 0.36 0.00 87 1019.1
20260506151516 50 349 0.0 4.0 0.00 0.36 0.00 92 1019.1
20260506150017 49 353 2.0 5.0 0.00 0.36 0.00 92 1018.7
20260506144512 49 344 0.0 1.0 0.00 0.42 0.00 92 1018.8
20260506143009 48 338 0.0 7.0 0.00 0.42 0.00 92 1018.9
20260506141506 48 9 4.0 8.0 0.00 0.42 0.00 92 1018.7
20260506140005 48 20 1.0 7.0 0.00 0.42 0.00 92 1018.7
20260506134559 48 348 0.0 4.0 0.00 0.42 0.00 92 1018.6
20260506133106 47 346 0.0 3.0 0.00 0.42 0.00 92 1018.7
20260506131557 47 330 1.0 3.0 0.00 0.42 0.00 92 1018.6
20260506130051 47 249 1.0 3.0 0.00 0.42 0.00 92 1018.4
20260506124549 47 350 0.0 3.0 0.00 0.42 0.00 91 1018.1
20260506123048 46 50 0.0 0.0 0.00 0.42 0.00 91 1017.6
20260506121553 0 0.0 0.0 0.00 0.42 0.00 1018.1
20260506084533 46 302 0.0 3.0 0.00 0.42 0.04 91 1016.5
20260506083030 45 334 2.0 4.0 0.00 0.42 0.04 91 1016.4
20260506081528 45 4 2.0 4.0 0.00 0.42 0.04 91 1015.9
20260506073026 46 356 0.0 1.0 0.01 0.42 0.04 91 1016.1
20260506071526 45 2 0.0 1.0 0.02 0.42 0.04 91 1015.5
20260506061531 45 136 0.0 0.0 0.02 0.40 0.02 90 1015.2